Regional Weather Roundup
Issued by NWS Kansas City/Pleasant Hill, MO

Home | Current Version | Previous Version | Text Only | Print | Product List | Glossary On
Versions: 1 2 3 4 5 6 7 8 9 10 11 12 13 14 15 16 17 18 19 20 21 22 23 24 25 26 27 28 29 30 31 32 33 34 35 36 37 38 39 40 41 42 43 44 45 46 47 48 49 50
000
ASUS43 KEAX 060011
RWREAX

WEATHER ROUNDUP FOR EASTERN KANSAS AND NORTHWEST MISSOURI
NATIONAL WEATHER SERVICE KANSAS CITY/PLEASANT HILL MO
600 PM CST THU MAR 05 2015

KSZ040-057-103>105-MOZ028-029-037-043-060100-
...KANSAS CITY METROPOLITAN AREA...

CITY           SKY/WX    TMP DP  RH WIND       PRES   REMARKS
K.C. INTL      PTCLDY    29   5  36 S8        30.48S WCI  21
6HR MIN TEMP:  22; 6HR MAX TEMP:  32;

K.C. DOWNTOWN  CLEAR     33   3  28 CALM      30.50R
6HR MIN TEMP:  23; 6HR MAX TEMP:  34;

LEES SUMMIT    CLEAR     30   4  33 SW6       30.49S WCI  24
6HR MIN TEMP:  23; 6HR MAX TEMP:  33;

OLATHE - IXD   CLEAR     30   9  41 S6        30.49S WCI  24
6HR MIN TEMP:  23; 6HR MAX TEMP:  32; 6HR PCP: TRACE;

OLATHE - OJC   CLEAR     30   7  37 S5        30.48S WCI  25
6HR MIN TEMP:  24; 6HR MAX TEMP:  33;

LAWRENCE       CLEAR     31  11  43 SE9       30.49S WCI  23

$$

MOZ001>008-011>017-020>025-030>033-038>040-044>046-053-054-060100-
...NORTHERN AND CENTRAL MISSOURI...

CITY           SKY/WX    TMP DP  RH WIND       PRES   REMARKS
ST. JOSEPH     CLEAR     29   6  38 S5        30.49F WCI  24
6HR MIN TEMP:  20; 6HR MAX TEMP:  30;

MOSBY          CLEAR     30   3  31 SE3       30.51S
WARRENSBURG    CLEAR     30   7  37 CALM      30.52R
WHITEMAN AFB   CLEAR     27   9  46 E2        30.51S
6HR MIN TEMP:  23; 6HR MAX TEMP:  30;

CLINTON        CLEAR     30  10  43 CALM      30.54R
SEDALIA        CLEAR     28   7  41 CALM      30.53S
6HR MIN TEMP:  22; 6HR MAX TEMP:  30;

WARSAW         NOT AVBL
MARSHALL       CLEAR     30   9  40 CALM      30.54S
CHILLICOTHE      N/A     27   2  34 CALM      30.52S
6HR MIN TEMP:  21; 6HR MAX TEMP:  30;

MOBERLY        CLEAR     27   7  43 W3        30.53S
KIRKSVILLE     CLEAR     23   2  40 CALM      30.51S
6HR MIN TEMP:  18; 6HR MAX TEMP:  27;


$$

MOZ041-047>049-056>058-063>065-088>090-097-060100-
...EASTERN AND SOUTHERN MISSOURI...

CITY           SKY/WX    TMP DP  RH WIND       PRES   REMARKS
ST. LOUIS INTL CLEAR     22   5  48 N6        30.57R WCI  14
6HR MIN TEMP:  22; 6HR MAX TEMP:  26;

SPIRIT OF STL  CLEAR     23   8  52 NW5       30.57R WCI  17
COLUMBIA       CLEAR     26   8  46 N3        30.53R
JEFFERSON CITY CLEAR     27   6  41 NW5       30.56R WCI  22
MEXICO         CLEAR     23  14  68 E5        30.54S WCI  17
HANNIBAL       CLEAR     18   1  49 NE3       30.55S
ROLLA          CLEAR     26   8  46 NW6       30.49R WCI  19
LEBANON        CLEAR     28   7  40 N6        30.50R WCI  22
OSAGE BEACH    CLEAR     28   7  40 N3        30.53R
SPRINGFIELD    CLEAR     32   9  38 NW3       30.49S
BRANSON        CLEAR     30  10  43 N6        30.51R WCI  24
NEVADA         CLEAR     28  16  59 E6        30.53S WCI  22
JOPLIN         CLEAR     34  12  40 CALM      30.52R
WEST PLAINS    CLEAR     28   6  39 N6        30.50R WCI  22

$$

IAZ060-094-KSZ022-034>040-054-083-096-NEZ052-066-093-060100-
...KANSAS...SOUTHEAST NEBRASKA AND IOWA...

CITY           SKY/WX    TMP DP  RH WIND       PRES   REMARKS
TOPEKA         CLEAR     34  10  37 S8        30.47S WCI  27
6HR MIN TEMP:  25; 6HR MAX TEMP:  36;

MANHATTAN      CLEAR     38   9  30 SW3       30.41S
EMPORIA        CLEAR     34  18  52 E10       30.43R WCI  26
CHANUTE        CLEAR     36  15  42 SE8       30.47S WCI  30
WICHITA        CLEAR     43  12  28 W7        30.41S
OMAHA          PTCLDY    30   5  34 S14       30.41F WCI  19
LINCOLN        CLEAR     33   7  33 S13       30.38F WCI  24
FALLS CITY     CLEAR     30   5  34 S8        30.44F WCI  22
LAMONI         CLEAR     23   3  42 SE3       30.47S
DES MOINES     CLEAR     21   1  41 S6        30.48F WCI  13

$$



USA.gov is the U.S. government's official web portal to all federal, state and local government web resources and services.